This demonstration page uses our WeatherBlox Daily Observations layout. Learn more.

Left ArrowRight Arrow

38.20091, -84.87328

Hourly Observations for September 13, 2022

Temp ( °F °C ) Dew Point ( °F °C ) Humidity (%) Winds ( mph kmh ) Pressure ( in mb ) Visibility ( mi km ) Precip ( " mm )
12:53 am 00:53 Mostly Clear 59 15 52 11.1 77 77 SW 7 11 29.86 1011 10 16 0.00 0.00
1:53 am 01:53 Partly Cloudy 58 14.4 52 11.1 81 81 SW 7 11 29.85 1011 10 16 0.00 0.00
2:53 am 02:53 Clear 56 13.3 51 10.6 84 84 SW 7 11 29.84 1011 10 16 0.00 0.00
3:53 am 03:53 Clear 55 12.8 51 10.6 86 86 SW 7 11 29.84 1011 10 16 0.00 0.00
4:53 am 04:53 Clear 54 12.2 51 10.6 90 90 SW 5 7 29.84 1011 10 16 0.00 0.00
5:53 am 05:53 Clear 54 12.2 51 10.6 90 90 W 3 6 29.85 1011 10 16 0.00 0.00
6:53 am 06:53 Mostly Cloudy 54 12.2 51 10.6 90 90 SW 6 9 29.87 1011 10 16 0.00 0.00
7:53 am 07:53 Sunny 54 12.2 52 11.1 93 93 SW 5 7 29.89 1012 10 16 0.00 0.00
8:53 am 08:53 Sunny 58 14.4 54 12.2 87 87 SW 9 15 29.90 1013 10 16 0.00 0.00
9:53 am 09:53 Sunny 63 17.2 55 12.8 75 75 VRB 3 6 29.91 1013 10 16 0.00 0.00
10:53 am 10:53 Sunny 68 20 56 13.3 65 65 undefined N/A 29.92 1013 10 16 0.00 0.00
11:53 am 11:53 Mostly Sunny 70 21.1 56 13.3 61 61 NNW 9 15 29.93 1014 10 16 0.00 0.00
12:53 pm 12:53 Mostly Cloudy 71 21.7 56 13.3 59 59 NNW 5 7 29.93 1014 10 16 0.00 0.00
1:53 pm 13:53 Cloudy 71 21.7 57 13.9 61 61 W 6 9 29.93 1014 10 16 0.00 0.00
2:53 pm 14:53 Cloudy 71 21.7 58 14.4 63 63 WNW 5 7 29.94 1014 10 16 0.00 0.00
3:53 pm 15:53 Cloudy 72 22.2 58 14.4 61 61 W 6 9 29.93 1014 10 16 0.00 0.00
4:53 pm 16:53 Cloudy 72 22.2 59 15 64 64 WNW 3 6 29.94 1014 10 16 0.00 0.00
5:53 pm 17:53 Mostly Cloudy 74 23.3 59 15 60 60 NW 9 15 29.94 1014 10 16 0.00 0.00
6:53 pm 18:53 Partly Cloudy 70 21.1 59 15 68 68 WNW 6 9 29.96 1015 10 16 0.00 0.00
7:53 pm 19:53 Cloudy 67 19.4 60 15.6 79 79 Calm 29.98 1015 10 16 0.00 0.00
8:53 pm 20:53 Cloudy 65 18.3 61 16.1 87 87 Calm 29.98 1015 10 16 0.00 0.00
9:53 pm 21:53 Cloudy 67 19.4 61 16.1 81 81 Calm 30.00 1016 10 16 0.00 0.00
10:53 pm 22:53 Cloudy 65 18.3 62 16.7 90 90 Calm 30.01 1016 10 16 0.00 0.00
11:53 pm 23:53 Cloudy 66 18.9 62 16.7 87 87 Calm 30.01 1016 10 16 0.00 0.00

Powered by AerisWeather